Date String (YYYY-MM-DD hh:mm:ss) UTC,Instrument flags,Ambient pressure (hPa),Sample flow (lpm),Bypass flow (lpm),Sample temperature (°C),Ambient temperature (°C),ASC tube jacket temperature (°C),LED temperature (°C),Box temperature (°C),Sample RH (%),Span deviation,Mass concentration (μg/m³),Mass concentration (μg/m³),Mass concentration (μg/m³)
DateTimeUTC,F1_M11,P_M11,Q1_M11,Q2_M11,T1_M11,T2_M11,T3_M11,T4_M11,T5_M11,U1_M11,ZSPAN_M11,X0_M11,X2_M11,X1_M11
2022-04-18 16:00:00,,0833.2,4.99,0.00,23.8,23.0,00.0,32.6,25.6,10.2,0000.0,0014.75,0003.95,0002.22
2022-04-18 16:01:00,,0833.2,5.01,0.00,23.8,23.0,00.0,32.6,25.6,10.0,0000.0,0014.53,0003.88,0002.23
2022-04-18 16:02:00,,0833.1,5.01,0.00,23.8,23.0,00.0,32.6,25.6,10.2,0000.0,0013.98,0003.85,0002.25
2022-04-18 16:03:00,,0833.1,5.00,0.00,23.8,23.0,00.0,32.6,25.7,10.1,0000.0,0014.19,0003.92,0002.25
2022-04-18 16:04:00,,0833.1,5.00,0.00,23.9,23.1,00.0,32.7,25.7,10.2,0000.0,0014.30,0003.97,0002.26
2022-04-18 16:05:00,,0833.2,4.99,0.00,23.9,23.1,00.0,32.7,25.7,10.1,0000.0,0013.76,0003.99,0002.28
2022-04-18 16:06:00,,0833.2,5.00,0.00,23.9,23.1,00.0,32.7,25.7,10.2,0000.0,0013.06,0003.98,0002.31
2022-04-18 16:07:00,,0833.2,5.00,0.00,23.9,23.1,00.0,32.7,25.7,10.2,0000.0,0013.95,0004.03,0002.33
2022-04-18 16:08:00,,0833.1,5.00,0.00,23.9,23.1,00.0,32.7,25.7,10.2,0000.0,0014.54,0004.09,0002.36
2022-04-18 16:09:00,,0833.2,5.00,0.00,23.9,23.1,00.0,32.7,25.6,10.2,0000.0,0014.94,0004.13,0002.38
2022-04-18 16:10:00,,0833.1,5.00,0.00,23.9,23.0,00.0,32.7,25.6,10.2,0000.0,0014.51,0004.14,0002.38
2022-04-18 16:11:00,,0833.2,4.99,0.00,23.8,23.0,00.0,32.7,25.6,10.1,0000.0,0014.53,0004.12,0002.40
2022-04-18 16:12:00,,0833.1,5.00,0.00,23.8,23.0,00.0,32.7,25.6,10.2,0000.0,0014.99,0004.17,0002.43
2022-04-18 16:13:00,,0833.2,5.00,0.00,23.9,23.0,00.0,32.7,25.6,10.3,0000.0,0015.11,0004.20,0002.44
2022-04-18 16:14:00,,0833.1,5.01,0.00,23.9,23.0,00.0,32.7,25.6,10.4,0000.0,0015.18,0004.20,0002.46
2022-04-18 16:15:00,,0833.1,5.00,0.00,23.9,23.0,00.0,32.7,25.6,10.3,0000.0,0015.75,0004.22,0002.48
2022-04-18 16:16:00,,0833.1,5.00,0.00,23.9,23.1,00.0,32.7,25.7,10.2,0000.0,0015.50,0004.20,0002.49
2022-04-18 16:17:00,,0833.1,5.01,0.00,23.9,23.1,00.0,32.8,25.7,10.3,0000.0,0015.92,0004.21,0002.49
2022-04-18 16:18:00,,0833.1,4.99,0.00,23.9,23.1,00.0,32.8,25.7,10.2,0000.0,0014.88,0004.15,0002.48
2022-04-18 16:19:00,,0833.1,4.99,0.00,23.9,23.1,00.0,32.8,25.7,10.1,0000.0,0015.10,0004.14,0002.46
2022-04-18 16:20:00,,0833.1,5.00,0.00,23.9,23.2,00.0,32.8,25.8,10.1,0000.0,0016.05,0004.10,0002.45
2022-04-18 16:21:00,,0833.1,4.99,0.00,24.0,23.2,00.0,32.8,25.8,10.2,0000.0,0015.79,0004.07,0002.47
2022-04-18 16:22:00,,0833.1,5.00,0.00,24.0,23.2,00.0,32.8,25.9,10.2,0000.0,0016.19,0004.09,0002.49
2022-04-18 16:23:00,,0833.1,5.00,0.00,24.0,23.2,00.0,32.8,25.9,10.1,0000.0,0016.10,0004.11,0002.50
2022-04-18 16:24:00,,0833.1,4.99,0.00,24.0,23.2,00.0,32.8,25.9,10.1,0000.0,0016.01,0004.10,0002.51
2022-04-18 16:25:00,,0833.1,5.01,0.00,24.0,23.2,00.0,32.8,25.9,10.0,0000.0,0015.83,0004.06,0002.52
2022-04-18 16:26:00,,0833.1,4.99,0.00,24.1,23.2,00.0,32.9,26.0,10.2,0000.0,0016.10,0004.08,0002.51
2022-04-18 16:27:00,,0833.1,5.01,0.00,24.1,23.3,00.0,32.9,25.9,10.2,0000.0,0016.67,0004.12,0002.53
2022-04-18 16:28:00,,0833.1,5.00,0.00,24.1,23.3,00.0,32.9,26.0,10.4,0000.0,0016.93,0004.09,0002.54
2022-04-18 16:29:00,,0833.1,5.00,0.00,24.1,23.3,00.0,32.9,26.0,10.5,0000.0,0016.61,0004.13,0002.55
2022-04-18 16:30:00,,0833.1,5.00,0.00,24.1,23.3,00.0,32.9,26.0,10.2,0000.0,0016.02,0004.16,0002.60
2022-04-18 16:31:00,,0833.0,5.00,0.00,24.1,23.3,00.0,32.9,26.0,10.3,0000.0,0014.12,0004.16,0002.63
2022-04-18 16:32:00,,0833.0,5.00,0.00,24.1,23.3,00.0,32.9,25.9,10.3,0000.0,0014.39,0004.20,0002.65
2022-04-18 16:33:00,,0833.0,5.00,0.00,24.1,23.2,00.0,32.9,25.9,10.5,0000.0,0014.38,0004.21,0002.67
2022-04-18 16:34:00,,0832.9,5.00,0.00,24.1,23.2,00.0,32.9,25.9,10.4,0000.0,0014.21,0004.21,0002.68
2022-04-18 16:35:00,,0833.0,5.01,0.00,24.1,23.2,00.0,32.9,25.9,10.4,0000.0,0014.93,0004.22,0002.70
2022-04-18 16:36:00,,0833.1,5.00,0.00,24.1,23.2,00.0,32.9,25.9,10.3,0000.0,0016.32,0004.24,0002.72
2022-04-18 16:37:00,,0833.0,5.00,0.00,24.1,23.2,00.0,33.0,25.9,10.2,0000.0,0015.71,0004.25,0002.74
2022-04-18 16:38:00,,0833.0,5.00,0.00,24.0,23.2,00.0,32.9,25.9,10.2,0000.0,0015.57,0004.25,0002.75
2022-04-18 16:39:00,,0833.0,5.01,0.00,24.0,23.2,00.0,32.9,25.9,10.3,0000.0,0014.98,0004.31,0002.76
2022-04-18 16:40:00,,0833.0,5.00,0.00,24.0,23.2,00.0,32.9,25.9,10.3,0000.0,0015.58,0004.30,0002.79
2022-04-18 16:41:00,,0833.1,5.00,0.00,24.0,23.2,00.0,32.9,25.9,10.4,0000.0,0015.85,0004.29,0002.78
2022-04-18 16:42:00,,0833.0,5.00,0.00,24.0,23.2,00.0,32.9,25.9,10.3,0000.0,0017.02,0004.33,0002.81
2022-04-18 16:43:00,,0832.9,5.00,0.00,24.0,23.2,00.0,32.9,25.9,10.3,0000.0,0016.99,0004.35,0002.82
2022-04-18 16:44:00,,0832.8,5.00,0.00,24.0,23.2,00.0,32.9,25.9,10.5,0000.0,0017.93,0004.39,0002.82
2022-04-18 16:45:00,,0832.8,5.00,0.00,24.0,23.2,00.0,32.9,25.9,10.6,0000.0,0019.42,0004.43,0002.84
2022-04-18 16:46:00,,0832.8,5.00,0.00,24.0,23.2,00.0,32.9,25.9,10.4,0000.0,0019.10,0004.46,0002.85
2022-04-18 16:47:00,,0832.8,4.99,0.00,24.0,23.2,00.0,32.9,25.9,10.4,0000.0,0017.92,0004.51,0002.86
2022-04-18 16:48:00,,0832.8,4.99,0.00,24.0,23.2,00.0,32.9,25.9,10.4,0000.0,0017.73,0004.49,0002.88
2022-04-18 16:49:00,,0832.9,5.01,0.00,24.1,23.2,00.0,32.9,25.9,10.5,0000.0,0017.67,0004.52,0002.91
2022-04-18 16:50:00,,0833.0,5.00,0.00,24.1,23.3,00.0,32.9,25.9,10.4,0000.0,0018.19,0004.52,0002.94
2022-04-18 16:51:00,,0832.8,5.00,0.00,24.1,23.3,00.0,33.0,26.0,10.3,0000.0,0017.88,0004.55,0002.97
2022-04-18 16:52:00,,0832.7,5.00,0.00,24.1,23.3,00.0,33.0,25.9,10.3,0000.0,0018.02,0004.56,0003.01
2022-04-18 16:53:00,,0832.8,5.00,0.00,24.1,23.3,00.0,33.0,26.0,10.4,0000.0,0018.54,0004.52,0003.04
2022-04-18 16:54:00,,0832.7,5.01,0.00,24.1,23.3,00.0,33.0,26.0,10.4,0000.0,0018.40,0004.52,0003.06
2022-04-18 16:55:00,,0832.7,4.99,0.00,24.1,23.3,00.0,33.0,26.0,10.4,0000.0,0017.06,0004.52,0003.08
2022-04-18 16:56:00,,0832.7,5.00,0.00,24.1,23.3,00.0,33.0,26.0,10.4,0000.0,0016.50,0004.53,0003.11
2022-04-18 16:57:00,,0832.7,5.01,0.00,24.1,23.3,00.0,33.0,26.0,10.4,0000.0,0016.25,0004.52,0003.13
2022-04-18 16:58:00,,0832.7,4.99,0.00,24.1,23.3,00.0,33.0,26.0,10.5,0000.0,0016.10,0004.48,0003.15
2022-04-18 16:59:00,,0832.7,5.00,0.00,24.1,23.3,00.0,33.0,26.0,10.5,0000.0,0016.01,0004.51,0003.16
